| time (UTC) | temp C | wind direction | speed KPH | gust KPH | rain 1hr cm | rain 24hr cm | rain mn cm | humidity % | barometer mb |
| 20260507023014 | 6 | 119 | 3.2 | 4.8 | 0.00 | 0.25 | 0.25 | 94 | 1012.2 |
| 20260507022511 | 6 | 110 | 3.2 | 4.8 | 0.00 | 0.25 | 0.25 | 94 | 1012.2 |
| 20260507022006 | 6 | 97 | 3.2 | 3.2 | 0.00 | 0.25 | 0.25 | 94 | 1012.3 |
| 20260507021502 | 6 | 110 | 1.6 | 3.2 | 0.00 | 0.25 | 0.25 | 94 | 1012.4 |
| 20260507020959 | 6 | 81 | 0.0 | 3.2 | 0.00 | 0.25 | 0.25 | 93 | 1012.4 |
| 20260507020456 | 7 | 110 | 0.0 | 3.2 | 0.00 | 0.25 | 0.25 | 92 | 1012.1 |
| 20260507015953 | 7 | 135 | 3.2 | 3.2 | 0.00 | 0.25 | 0.25 | 90 | 1012.4 |
| 20260507015451 | 7 | 114 | 1.6 | 3.2 | 0.00 | 0.25 | 0.25 | 89 | 1012.2 |
| 20260507014948 | 7 | 121 | 1.6 | 3.2 | 0.00 | 0.25 | 0.25 | 88 | 1012.0 |
| 20260507014445 | 7 | 129 | 3.2 | 3.2 | 0.00 | 0.25 | 0.25 | 88 | 1012.0 |
| 20260507013940 | 7 | 112 | 3.2 | 3.2 | 0.00 | 0.25 | 0.25 | 88 | 1012.1 |
| 20260507013437 | 7 | 86 | 3.2 | 3.2 | 0.00 | 0.25 | 0.25 | 89 | 1012.1 |
| 20260507012935 | 7 | 89 | 1.6 | 3.2 | 0.00 | 0.25 | 0.25 | 89 | 1011.9 |
| 20260507012431 | 7 | 113 | 3.2 | 4.8 | 0.00 | 0.25 | 0.25 | 88 | 1011.6 |
| 20260507011922 | 8 | 129 | 4.8 | 4.8 | 0.00 | 0.25 | 0.25 | 85 | 1011.8 |
| 20260507011420 | 7 | 101 | 1.6 | 3.2 | 0.00 | 0.25 | 0.25 | 85 | 1011.9 |
| 20260507010919 | 8 | 124 | 3.2 | 4.8 | 0.00 | 0.25 | 0.25 | 85 | 1011.9 |
| 20260507010415 | 8 | 106 | 1.6 | 3.2 | 0.00 | 0.25 | 0.25 | 84 | 1011.7 |
| 20260507005913 | 8 | 130 | 3.2 | 3.2 | 0.00 | 0.25 | 0.25 | 83 | 1011.6 |
| 20260507005409 | 8 | 94 | 1.6 | 3.2 | 0.00 | 0.25 | 0.25 | 83 | 1011.5 |
| 20260507004906 | 8 | 117 | 1.6 | 3.2 | 0.00 | 0.25 | 0.25 | 83 | 1011.5 |
| 20260507004403 | 8 | 133 | 3.2 | 3.2 | 0.00 | 0.25 | 0.25 | 84 | 1011.5 |
| 20260507003900 | 9 | 148 | 3.2 | 4.8 | 0.00 | 0.25 | 0.25 | 83 | 1011.5 |
| 20260507003355 | 9 | 104 | 1.6 | 3.2 | 0.00 | 0.25 | 0.25 | 78 | 1011.6 |
| 20260507002851 | 10 | 119 | 1.6 | 3.2 | 0.00 | 0.25 | 0.25 | 78 | 1011.4 |
| 20260507002347 | 10 | 158 | 0.0 | 3.2 | 0.00 | 0.25 | 0.25 | 78 | 1011.5 |
| 20260507001844 | 10 | 325 | 1.6 | 6.4 | 0.00 | 0.25 | 0.25 | 72 | 1011.3 |
| 20260507001341 | 11 | 113 | 0.0 | 1.6 | 0.00 | 0.25 | 0.25 | 74 | 1011.3 |
| 20260507000837 | 11 | 102 | 0.0 | 4.8 | 0.00 | 0.25 | 0.25 | 68 | 1011.2 |
| 20260507000335 | 11 | 284 | 0.0 | 3.2 | 0.00 | 0.25 | 0.25 | 70 | 1011.2 |
| 20260506235830 | 11 | 342 | 1.6 | 4.8 | 0.00 | 0.25 | 0.25 | 69 | 1011.2 |
| 20260506235327 | 11 | 314 | 3.2 | 8.0 | 0.00 | 0.25 | 0.25 | 70 | 1011.2 |
| 20260506234823 | 11 | 324 | 4.8 | 6.4 | 0.00 | 0.25 | 0.25 | 67 | 1011.4 |
| 20260506234320 | 12 | 312 | 4.8 | 4.8 | 0.00 | 0.25 | 0.25 | 64 | 1011.2 |
| 20260506233818 | 12 | 307 | 3.2 | 9.7 | 0.00 | 0.25 | 0.25 | 65 | 1011.2 |
| 20260506233314 | 12 | 323 | 6.4 | 14.5 | 0.00 | 0.25 | 0.25 | 65 | 1011.1 |
| 20260506232811 | 12 | 313 | 6.4 | 11.3 | 0.00 | 0.25 | 0.25 | 63 | 1011.3 |
| 20260506232306 | 12 | 331 | 8.0 | 16.1 | 0.00 | 0.25 | 0.25 | 60 | 1011.3 |
| 20260506231803 | 12 | 315 | 6.4 | 12.9 | 0.00 | 0.25 | 0.25 | 66 | 1011.2 |
| 20260506231301 | 11 | 331 | 4.8 | 14.5 | 0.00 | 0.25 | 0.25 | 67 | 1011.4 |
| 20260506230758 | 11 | 330 | 6.4 | 12.9 | 0.00 | 0.25 | 0.25 | 67 | 1011.4 |
| 20260506230255 | 11 | 300 | 3.2 | 11.3 | 0.00 | 0.25 | 0.25 | 71 | 1011.4 |
| 20260506225751 | 11 | 314 | 4.8 | 6.4 | 0.00 | 0.25 | 0.25 | 65 | 1011.4 |
| 20260506225248 | 11 | 311 | 11.3 | 11.3 | 0.00 | 0.25 | 0.25 | 64 | 1011.4 |
| 20260506224744 | 11 | 332 | 4.8 | 9.7 | 0.00 | 0.25 | 0.25 | 68 | 1011.6 |
| 20260506224242 | 11 | 320 | 4.8 | 8.0 | 0.00 | 0.25 | 0.25 | 69 | 1011.7 |
| 20260506223732 | 11 | 340 | 8.0 | 14.5 | 0.00 | 0.25 | 0.25 | 63 | 1011.7 |
| 20260506223228 | 11 | 268 | 8.0 | 9.7 | 0.00 | 0.25 | 0.25 | 65 | 1011.8 |
| 20260506222725 | 11 | 85 | 1.6 | 12.9 | 0.00 | 0.25 | 0.25 | 69 | 1011.9 |
| 20260506222220 | 11 | 159 | 3.2 | 16.1 | 0.00 | 0.25 | 0.25 | 67 | 1011.7 |
| 20260506221719 | 11 | 320 | 8.0 | 16.1 | 0.00 | 0.25 | 0.25 | 63 | 1011.7 |
| 20260506221217 | 11 | 274 | 6.4 | 16.1 | 0.00 | 0.25 | 0.25 | 62 | 1011.5 |
| 20260506220714 | 11 | 317 | 3.2 | 9.7 | 0.00 | 0.25 | 0.25 | 69 | 1011.6 |
| 20260506220208 | 11 | 307 | 4.8 | 14.5 | 0.00 | 0.25 | 0.25 | 62 | 1011.5 |
| 20260506215705 | 11 | 315 | 8.0 | 17.7 | 0.00 | 0.25 | 0.25 | 66 | 1011.7 |
| 20260506215201 | 11 | 316 | 9.7 | 19.3 | 0.00 | 0.25 | 0.25 | 61 | 1011.3 |
| 20260506214657 | 11 | 338 | 12.9 | 16.1 | 0.00 | 0.25 | 0.25 | 63 | 1011.4 |
| 20260506214155 | 11 | 334 | 12.9 | 17.7 | 0.00 | 0.25 | 0.25 | 64 | 1011.7 |
| 20260506213653 | 11 | 313 | 19.3 | 20.9 | 0.00 | 0.25 | 0.25 | 60 | 1011.6 |
| 20260506213150 | 11 | 306 | 6.4 | 11.3 | 0.00 | 0.25 | 0.25 | 64 | 1011.6 |
| 20260506212648 | 11 | 310 | 16.1 | 17.7 | 0.00 | 0.25 | 0.25 | 59 | 1011.4 |
| 20260506212142 | 11 | 225 | 12.9 | 19.3 | 0.00 | 0.25 | 0.25 | 61 | 1011.4 |
| 20260506211638 | 11 | 295 | 9.7 | 17.7 | 0.00 | 0.25 | 0.25 | 59 | 1011.2 |
| 20260506211135 | 11 | 316 | 8.0 | 17.7 | 0.00 | 0.25 | 0.25 | 62 | 1011.2 |
| 20260506210632 | 11 | 319 | 6.4 | 19.3 | 0.00 | 0.25 | 0.25 | 61 | 1011.2 |
| 20260506210129 | 11 | 333 | 9.7 | 19.3 | 0.00 | 0.25 | 0.25 | 60 | 1010.9 |
| 20260506205626 | 11 | 338 | 8.0 | 14.5 | 0.00 | 0.25 | 0.25 | 59 | 1011.3 |
| 20260506205126 | 11 | 295 | 8.0 | 20.9 | 0.00 | 0.25 | 0.25 | 64 | 1011.1 |
| 20260506204624 | 11 | 315 | 9.7 | 24.1 | 0.00 | 0.25 | 0.25 | 63 | 1011.3 |
| 20260506204121 | 11 | 306 | 12.9 | 22.5 | 0.00 | 0.25 | 0.25 | 59 | 1011.2 |
| 20260506203619 | 12 | 332 | 20.9 | 29.0 | 0.00 | 0.25 | 0.25 | 61 | 1011.3 |
| 20260506203115 | 12 | 222 | 3.2 | 16.1 | 0.00 | 0.25 | 0.25 | 59 | 1011.1 |
| 20260506202613 | 12 | 306 | 8.0 | 20.9 | 0.00 | 0.25 | 0.25 | 58 | 1011.4 |
| 20260506202109 | 12 | 299 | 14.5 | 14.5 | 0.00 | 0.25 | 0.25 | 62 | 1011.3 |
| 20260506201607 | 12 | 206 | 4.8 | 17.7 | 0.00 | 0.25 | 0.25 | 60 | 1011.3 |
| 20260506201103 | 12 | 304 | 6.4 | 19.3 | 0.00 | 0.25 | 0.25 | 65 | 1011.2 |
| 20260506200600 | 12 | 275 | 8.0 | 24.1 | 0.00 | 0.25 | 0.25 | 57 | 1011.1 |
| 20260506200056 | 12 | 325 | 6.4 | 20.9 | 0.00 | 0.25 | 0.25 | 60 | 1011.2 |
| 20260506195553 | 12 | 317 | 16.1 | 24.1 | 0.00 | 0.25 | 0.25 | 56 | 1011.2 |
| 20260506195049 | 12 | 283 | 6.4 | 11.3 | 0.00 | 0.25 | 0.25 | 59 | 1011.1 |
| 20260506194547 | 12 | 317 | 9.7 | 19.3 | 0.00 | 0.25 | 0.25 | 56 | 1010.9 |
| 20260506194038 | 12 | 309 | 6.4 | 12.9 | 0.00 | 0.25 | 0.25 | 60 | 1011.2 |
| 20260506193535 | 12 | 311 | 11.3 | 11.3 | 0.00 | 0.25 | 0.25 | 61 | 1011.3 |
| 20260506193032 | 12 | 334 | 6.4 | 19.3 | 0.00 | 0.25 | 0.25 | 58 | 1011.1 |
| 20260506192529 | 12 | 329 | 4.8 | 14.5 | 0.00 | 0.25 | 0.25 | 58 | 1011.1 |
| 20260506192025 | 12 | 326 | 11.3 | 20.9 | 0.00 | 0.25 | 0.25 | 62 | 1011.0 |
| 20260506191522 | 12 | 333 | 11.3 | 12.9 | 0.00 | 0.25 | 0.25 | 64 | 1011.2 |
| 20260506191018 | 12 | 188 | 1.6 | 9.7 | 0.00 | 0.25 | 0.25 | 69 | 1011.0 |
| 20260506190515 | 12 | 268 | 6.4 | 14.5 | 0.00 | 0.25 | 0.25 | 63 | 1011.1 |
| 20260506190012 | 12 | 321 | 12.9 | 19.3 | 0.00 | 0.25 | 0.25 | 65 | 1011.1 |
| 20260506185509 | 12 | 315 | 3.2 | 12.9 | 0.00 | 0.25 | 0.25 | 67 | 1011.3 |
| 20260506185006 | 12 | 237 | 4.8 | 11.3 | 0.00 | 0.25 | 0.25 | 63 | 1011.1 |
| 20260506184504 | 11 | 324 | 9.7 | 19.3 | 0.00 | 0.25 | 0.25 | 65 | 1011.2 |
| 20260506184001 | 12 | 307 | 8.0 | 14.5 | 0.00 | 0.25 | 0.25 | 61 | 1011.1 |
| 20260506183456 | 11 | 322 | 17.7 | 17.7 | 0.00 | 0.25 | 0.25 | 64 | 1011.0 |
| 20260506182953 | 11 | 326 | 14.5 | 16.1 | 0.00 | 0.25 | 0.25 | 68 | 1011.1 |
| 20260506182450 | 11 | 322 | 8.0 | 12.9 | 0.00 | 0.25 | 0.25 | 64 | 1011.3 |
| 20260506181947 | 11 | 324 | 4.8 | 17.7 | 0.00 | 0.25 | 0.25 | 63 | 1011.2 |
| 20260506181445 | 11 | 330 | 4.8 | 17.7 | 0.00 | 0.25 | 0.25 | 61 | 1011.1 |
| 20260506180941 | 11 | 334 | 11.3 | 16.1 | 0.00 | 0.25 | 0.25 | 63 | 1011.1 |
| 20260506180438 | 11 | 306 | 11.3 | 16.1 | 0.00 | 0.25 | 0.25 | 67 | 1011.1 |
| 20260506175935 | 11 | 323 | 11.3 | 19.3 | 0.00 | 0.25 | 0.25 | 62 | 1011.3 |
| 20260506175432 | 11 | 324 | 4.8 | 9.7 | 0.00 | 0.25 | 0.25 | 63 | 1011.3 |
| 20260506174928 | 11 | 321 | 9.7 | 17.7 | 0.00 | 0.25 | 0.25 | 60 | 1011.5 |
| 20260506174426 | 11 | 295 | 11.3 | 17.7 | 0.00 | 0.25 | 0.25 | 62 | 1011.3 |
| 20260506173917 | 12 | 322 | 8.0 | 11.3 | 0.00 | 0.25 | 0.25 | 64 | 1011.4 |
| 20260506173414 | 11 | 316 | 12.9 | 16.1 | 0.00 | 0.25 | 0.25 | 66 | 1011.4 |
| 20260506172911 | 11 | 301 | 11.3 | 14.5 | 0.00 | 0.25 | 0.25 | 65 | 1011.3 |
| 20260506172408 | 12 | 325 | 11.3 | 14.5 | 0.00 | 0.25 | 0.25 | 68 | 1011.0 |
| 20260506171905 | 12 | 315 | 14.5 | 19.3 | 0.00 | 0.25 | 0.25 | 70 | 1010.8 |
| 20260506171402 | 12 | 331 | 6.4 | 19.3 | 0.00 | 0.25 | 0.25 | 69 | 1011.0 |
| 20260506170900 | 12 | 320 | 12.9 | 19.3 | 0.00 | 0.25 | 0.25 | 68 | 1010.9 |
| 20260506170355 | 12 | 320 | 14.5 | 25.7 | 0.00 | 0.25 | 0.25 | 65 | 1011.1 |
| 20260506165849 | 12 | 192 | 1.6 | 12.9 | 0.00 | 0.25 | 0.25 | 63 | 1011.0 |
| 20260506165347 | 12 | 55 | 8.0 | 30.6 | 0.00 | 0.25 | 0.25 | 69 | 1011.2 |
| 20260506164843 | 12 | 19 | 8.0 | 22.5 | 0.00 | 0.25 | 0.25 | 68 | 1011.3 |
| 20260506164339 | 12 | 312 | 14.5 | 25.7 | 0.00 | 0.25 | 0.25 | 72 | 1011.4 |
| 20260506163838 | 12 | 13 | 9.7 | 24.1 | 0.00 | 0.25 | 0.25 | 70 | 1011.4 |
| 20260506163332 | 12 | 21 | 6.4 | 20.9 | 0.00 | 0.25 | 0.25 | 68 | 1011.3 |
| 20260506162827 | 12 | 330 | 17.7 | 22.5 | 0.00 | 0.25 | 0.25 | 74 | 1010.9 |
| 20260506162325 | 12 | 328 | 9.7 | 20.9 | 0.00 | 0.25 | 0.25 | 74 | 1011.3 |
| 20260506161817 | 12 | 327 | 16.1 | 16.1 | 0.00 | 0.25 | 0.25 | 81 | 1011.1 |
| 20260506161314 | 12 | 324 | 16.1 | 27.4 | 0.00 | 0.25 | 0.25 | 74 | 1010.9 |
| 20260506160811 | 12 | 324 | 19.3 | 30.6 | 0.00 | 0.25 | 0.25 | 75 | 1010.7 |
| 20260506160308 | 11 | 328 | 16.1 | 24.1 | 0.00 | 0.25 | 0.25 | 75 | 1011.0 |
| 20260506155807 | 12 | 0 | 9.7 | 22.5 | 0.00 | 0.25 | 0.25 | 73 | 1011.0 |
| 20260506155305 | 12 | 315 | 17.7 | 25.7 | 0.00 | 0.25 | 0.25 | 79 | 1011.0 |
| 20260506153416 | 11 | 334 | 16.1 | 22.5 | 0.00 | 0.25 | 0.25 | 74 | 1011.2 |
| 20260506152913 | 11 | 320 | 12.9 | 20.9 | 0.00 | 0.25 | 0.25 | 79 | 1011.2 |
| 20260506152410 | 11 | 294 | 14.5 | 20.9 | 0.00 | 0.25 | 0.25 | 74 | 1011.1 |
| 20260506151909 | 11 | 34 | 9.7 | 20.9 | 0.00 | 0.25 | 0.25 | 73 | 1011.2 |
| 20260506151405 | 11 | 326 | 11.3 | 20.9 | 0.00 | 0.25 | 0.25 | 82 | 1010.7 |
| 20260506150903 | 11 | 331 | 14.5 | 17.7 | 0.00 | 0.25 | 0.25 | 78 | 1010.8 |
| 20260506150359 | 11 | 322 | 9.7 | 20.9 | 0.00 | 0.25 | 0.25 | 78 | 1010.5 |
| 20260506145855 | 10 | 320 | 11.3 | 16.1 | 0.00 | 0.25 | 0.25 | 81 | 1010.7 |
| 20260506145351 | 10 | 310 | 8.0 | 20.9 | 0.00 | 0.25 | 0.25 | 76 | 1010.5 |
| 20260506144849 | 11 | 320 | 8.0 | 17.7 | 0.00 | 0.25 | 0.25 | 78 | 1010.3 |
| 20260506144346 | 10 | 311 | 8.0 | 16.1 | 0.00 | 0.25 | 0.25 | 78 | 1010.3 |
| 20260506143844 | 10 | 353 | 9.7 | 24.1 | 0.00 | 0.25 | 0.25 | 81 | 1010.4 |
| 20260506143341 | 10 | 295 | 11.3 | 19.3 | 0.00 | 0.25 | 0.25 | 82 | 1010.3 |
| 20260506142839 | 10 | 327 | 16.1 | 20.9 | 0.00 | 0.25 | 0.25 | 81 | 1010.5 |
| 20260506142337 | 10 | 317 | 12.9 | 20.9 | 0.00 | 0.25 | 0.25 | 80 | 1010.5 |
| 20260506141835 | 10 | 330 | 6.4 | 27.4 | 0.00 | 0.25 | 0.25 | 85 | 1010.4 |
| 20260506141333 | 10 | 317 | 17.7 | 24.1 | 0.00 | 0.25 | 0.25 | 85 | 1010.1 |
| 20260506140831 | 9 | 345 | 12.9 | 19.3 | 0.00 | 0.25 | 0.25 | 87 | 1010.3 |
| 20260506140327 | 9 | 334 | 9.7 | 17.7 | 0.00 | 0.25 | 0.25 | 85 | 1010.5 |
| 20260506135824 | 9 | 292 | 11.3 | 22.5 | 0.00 | 0.25 | 0.25 | 85 | 1010.6 |
| 20260506135321 | 8 | 303 | 17.7 | 20.9 | 0.00 | 0.25 | 0.25 | 84 | 1010.5 |
| 20260506134817 | 8 | 310 | 8.0 | 20.9 | 0.00 | 0.25 | 0.25 | 87 | 1010.3 |
| 20260506134313 | 8 | 306 | 19.3 | 20.9 | 0.00 | 0.25 | 0.25 | 85 | 1010.0 |
| 20260506133811 | 8 | 324 | 14.5 | 17.7 | 0.00 | 0.25 | 0.25 | 90 | 1010.0 |
| 20260506133307 | 8 | 295 | 6.4 | 14.5 | 0.00 | 0.25 | 0.25 | 87 | 1009.7 |
| 20260506132804 | 8 | 307 | 12.9 | 25.7 | 0.00 | 0.25 | 0.25 | 91 | 1010.1 |
| 20260506132301 | 8 | 324 | 11.3 | 14.5 | 0.00 | 0.25 | 0.25 | 89 | 1010.0 |
| 20260506131759 | 7 | 320 | 11.3 | 11.3 | 0.00 | 0.25 | 0.25 | 90 | 1009.7 |
| 20260506131255 | 7 | 339 | 4.8 | 11.3 | 0.00 | 0.25 | 0.25 | 89 | 1010.1 |
| 20260506130752 | 7 | 306 | 8.0 | 14.5 | 0.00 | 0.25 | 0.25 | 88 | 1010.0 |
| 20260506130249 | 7 | 326 | 9.7 | 14.5 | 0.00 | 0.25 | 0.25 | 91 | 1010.0 |
| 20260506125747 | 7 | 321 | 11.3 | 16.1 | 0.00 | 0.25 | 0.25 | 92 | 1009.8 |
| 20260506125245 | 7 | 316 | 9.7 | 12.9 | 0.00 | 0.25 | 0.25 | 94 | 1010.1 |
| 20260506124743 | 7 | 244 | 3.2 | 11.3 | 0.00 | 0.25 | 0.25 | 96 | 1009.8 |
| 20260506124240 | 7 | 307 | 3.2 | 9.7 | 0.00 | 0.25 | 0.25 | 96 | 1009.6 |
| 20260506123737 | 7 | 305 | 9.7 | 14.5 | 0.00 | 0.25 | 0.25 | 96 | 1009.6 |
| 20260506123237 | 7 | 319 | 8.0 | 12.9 | 0.00 | 0.25 | 0.25 | 96 | 1009.6 |
| 20260506122732 | 7 | 303 | 4.8 | 12.9 | 0.00 | 0.25 | 0.25 | 96 | 1009.3 |
| 20260506122230 | 7 | 310 | 4.8 | 11.3 | 0.00 | 0.25 | 0.25 | 96 | 1009.4 |
| 20260506121728 | 7 | 304 | 8.0 | 14.5 | 0.00 | 0.25 | 0.25 | 94 | 1009.1 |
| 20260506121225 | 7 | 304 | 6.4 | 11.3 | 0.00 | 0.25 | 0.25 | 94 | 1009.2 |
| 20260506120722 | 7 | 315 | 11.3 | 12.9 | 0.00 | 0.25 | 0.25 | 95 | 1009.0 |
| 20260506120219 | 6 | 322 | 6.4 | 11.3 | 0.00 | 0.25 | 0.25 | 95 | 1009.0 |
| 20260506115717 | 6 | 317 | 4.8 | 11.3 | 0.00 | 0.25 | 0.25 | 96 | 1008.8 |
| 20260506115215 | 6 | 317 | 4.8 | 11.3 | 0.00 | 0.25 | 0.25 | 95 | 1009.1 |
| 20260506114712 | 6 | 290 | 11.3 | 11.3 | 0.00 | 0.25 | 0.25 | 95 | 1009.0 |
| 20260506114210 | 6 | 329 | 3.2 | 8.0 | 0.00 | 0.25 | 0.25 | 95 | 1008.9 |
| 20260506113708 | 6 | 291 | 8.0 | 8.0 | 0.00 | 0.25 | 0.25 | 95 | 1008.8 |
| 20260506113205 | 6 | 334 | 4.8 | 9.7 | 0.00 | 0.25 | 0.25 | 95 | 1008.6 |
| 20260506112701 | 6 | 329 | 3.2 | 8.0 | 0.00 | 0.25 | 0.25 | 95 | 1008.3 |
| 20260506112159 | 6 | 329 | 6.4 | 9.7 | 0.00 | 0.25 | 0.25 | 96 | 1008.4 |
| 20260506111656 | 6 | 324 | 6.4 | 8.0 | 0.00 | 0.25 | 0.25 | 96 | 1008.3 |
| 20260506111154 | 6 | 312 | 8.0 | 11.3 | 0.00 | 0.25 | 0.25 | 97 | 1008.1 |
| 20260506110651 | 6 | 329 | 6.4 | 11.3 | 0.00 | 0.25 | 0.25 | 97 | 1007.9 |
| 20260506110149 | 6 | 312 | 8.0 | 11.3 | 0.00 | 0.25 | 0.25 | 97 | 1007.9 |
| 20260506105645 | 6 | 332 | 4.8 | 4.8 | 0.00 | 0.25 | 0.25 | 98 | 1007.8 |
| 20260506105142 | 6 | 47 | 3.2 | 6.4 | 0.00 | 0.25 | 0.25 | 98 | 1007.6 |
| 20260506104640 | 6 | 22 | 3.2 | 6.4 | 0.00 | 0.25 | 0.25 | 97 | 1007.8 |
| 20260506104138 | 6 | 352 | 1.6 | 4.8 | 0.00 | 0.25 | 0.25 | 98 | 1007.9 |
| 20260506103635 | 6 | 337 | 4.8 | 9.7 | 0.00 | 0.25 | 0.25 | 98 | 1007.6 |
| 20260506103131 | 6 | 40 | 3.2 | 11.3 | 0.00 | 0.25 | 0.25 | 99 | 1007.3 |
| 20260506102630 | 6 | 329 | 6.4 | 9.7 | 0.00 | 0.25 | 0.25 | 99 | 1007.6 |
| 20260506102127 | 6 | 323 | 8.0 | 11.3 | 0.00 | 0.25 | 0.25 | 99 | 1007.6 |
| 20260506101623 | 6 | 312 | 8.0 | 9.7 | 0.00 | 0.25 | 0.25 | 99 | 1007.6 |
| 20260506101119 | 6 | 314 | 6.4 | 9.7 | 0.00 | 0.25 | 0.25 | 99 | 1007.8 |
| 20260506100618 | 6 | 55 | 3.2 | 9.7 | 0.00 | 0.25 | 0.25 | 99 | 1007.6 |
| 20260506100116 | 6 | 330 | 8.0 | 11.3 | 0.00 | 0.25 | 0.25 | 99 | 1007.8 |
| 20260506095615 | 6 | 335 | 4.8 | 9.7 | 0.00 | 0.25 | 0.25 | 99 | 1007.3 |
| 20260506095111 | 6 | 326 | 6.4 | 9.7 | 0.00 | 0.25 | 0.25 | 99 | 1007.5 |
| 20260506094609 | 6 | 329 | 4.8 | 8.0 | 0.00 | 0.25 | 0.25 | 99 | 1007.4 |
| 20260506094106 | 6 | 50 | 4.8 | 6.4 | 0.00 | 0.25 | 0.25 | 99 | 1007.1 |
| 20260506093605 | 6 | 334 | 3.2 | 9.7 | 0.00 | 0.25 | 0.25 | 99 | 1007.3 |
| 20260506093101 | 6 | 319 | 8.0 | 11.3 | 0.00 | 0.25 | 0.25 | 99 | 1007.4 |
| 20260506092559 | 6 | 343 | 4.8 | 8.0 | 0.00 | 0.25 | 0.25 | 99 | 1007.2 |
| 20260506092056 | 6 | 321 | 9.7 | 12.9 | 0.00 | 0.25 | 0.25 | 99 | 1007.2 |
| 20260506091554 | 6 | 40 | 6.4 | 12.9 | 0.00 | 0.25 | 0.25 | 99 | 1007.3 |
| 20260506091052 | 6 | 321 | 6.4 | 16.1 | 0.00 | 0.25 | 0.25 | 99 | 1007.1 |
| 20260506090549 | 6 | 317 | 6.4 | 16.1 | 0.00 | 0.25 | 0.25 | 99 | 1006.9 |
| 20260506090045 | 6 | 336 | 3.2 | 11.3 | 0.00 | 0.25 | 0.25 | 99 | 1006.8 |
| 20260506085542 | 6 | 32 | 9.7 | 11.3 | 0.00 | 0.25 | 0.25 | 99 | 1007.0 |
| 20260506085038 | 6 | 50 | 4.8 | 11.3 | 0.00 | 0.25 | 0.25 | 99 | 1007.1 |
| 20260506084536 | 6 | 29 | 8.0 | 9.7 | 0.00 | 0.25 | 0.25 | 99 | 1007.2 |
| 20260506084031 | 5 | 25 | 6.4 | 12.9 | 0.00 | 0.25 | 0.25 | 99 | 1006.7 |
| 20260506083529 | 5 | 42 | 6.4 | 12.9 | 0.00 | 0.25 | 0.25 | 99 | 1006.6 |
| 20260506083026 | 6 | 32 | 3.2 | 8.0 | 0.05 | 0.25 | 0.25 | 99 | 1006.4 |
| 20260506082523 | 6 | 29 | 4.8 | 6.4 | 0.00 | 0.23 | 0.23 | 99 | 1006.4 |
| 20260506082019 | 6 | 28 | 4.8 | 9.7 | 0.00 | 0.23 | 0.23 | 99 | 1006.4 |
| 20260506081517 | 6 | 80 | 3.2 | 14.5 | 0.05 | 0.23 | 0.23 | 99 | 1006.6 |
| 20260506081014 | 6 | 349 | 4.8 | 11.3 | 0.05 | 0.23 | 0.23 | 99 | 1007.0 |
| 20260506080512 | 6 | 329 | 11.3 | 12.9 | 0.05 | 0.23 | 0.23 | 99 | 1007.5 |
| 20260506073455 | 6 | 5 | 1.6 | 12.9 | 0.00 | 0.20 | 0.20 | 99 | 1006.7 |
| 20260506072952 | 6 | 40 | 11.3 | 14.5 | 0.00 | 0.20 | 0.20 | 99 | 1006.8 |
| 20260506072449 | 6 | 39 | 6.4 | 12.9 | 0.05 | 0.20 | 0.20 | 99 | 1006.8 |
| 20260506071947 | 5 | 107 | 6.4 | 12.9 | 0.05 | 0.20 | 0.20 | 99 | 1006.6 |
| 20260506071445 | 5 | 344 | 3.2 | 12.9 | 0.00 | 0.18 | 0.18 | 99 | 1006.4 |
| 20260506070941 | 5 | 74 | 4.8 | 14.5 | 0.00 | 0.18 | 0.18 | 99 | 1006.4 |
| 20260506070439 | 6 | 60 | 6.4 | 14.5 | 0.00 | 0.18 | 0.18 | 99 | 1006.2 |
| 20260506062416 | 6 | 63 | 8.0 | 14.5 | 0.13 | 0.18 | 0.18 | 98 | 1007.4 |
| 20260506061912 | 6 | 319 | 11.3 | 17.7 | 0.13 | 0.15 | 0.15 | 98 | 1007.5 |
| 20260506061409 | 6 | 311 | 8.0 | 12.9 | 0.05 | 0.15 | 0.15 | 98 | 1007.1 |
| 20260506060907 | 6 | 330 | 11.3 | 14.5 | 0.05 | 0.15 | 0.15 | 99 | 1007.1 |
| 20260506060404 | 6 | 348 | 6.4 | 12.9 | 0.05 | 0.15 | 0.15 | 99 | 1007.2 |
| 20260506051336 | 6 | 9 | 4.8 | 17.7 | 0.05 | 0.10 | 0.10 | 99 | 1006.9 |
| 20260506050834 | 6 | 15 | 3.2 | 11.3 | 0.18 | 0.10 | 0.10 | 99 | 1007.0 |
| 20260506050331 | 6 | 69 | 3.2 | 9.7 | 0.23 | 0.10 | 0.10 | 99 | 1007.2 |
| 20260506044821 | 6 | 11 | 8.0 | 19.3 | 0.05 | 0.05 | 0.05 | 99 | 1007.0 |
| 20260506044319 | 6 | 334 | 4.8 | 11.3 | 0.00 | 0.03 | 0.03 | 99 | 1007.2 |
| 20260506043816 | 6 | 322 | 9.7 | 20.9 | 0.00 | 0.03 | 0.03 | 99 | 1007.3 |
| 20260506043313 | 6 | 335 | 11.3 | 14.5 | 0.05 | 0.03 | 0.03 | 99 | 1007.0 |
| 20260506042812 | 6 | 326 | 6.4 | 20.9 | 0.05 | 0.03 | 0.03 | 99 | 1007.1 |
| 20260506042311 | 6 | 359 | 8.0 | 19.3 | 0.00 | 0.03 | 0.03 | 99 | 1007.0 |
| 20260506041809 | 7 | 333 | 8.0 | 12.9 | 0.00 | 0.03 | 0.03 | 99 | 1007.1 |
| 20260506041305 | 7 | 39 | 11.3 | 14.5 | 0.05 | 0.03 | 0.03 | 99 | 1007.2 |
| 20260506040803 | 7 | 29 | 9.7 | 17.7 | 0.18 | 0.03 | 0.03 | 99 | 1006.7 |
| 20260506040300 | 7 | 41 | 8.0 | 14.5 | 0.30 | 0.00 | 0.00 | 99 | 1006.7 |
| 20260506035756 | 7 | 25 | 9.7 | 14.5 | 0.36 | 3.00 | 3.00 | 99 | 1006.7 |
| 20260506035253 | 7 | 36 | 11.3 | 14.5 | 0.30 | 2.95 | 2.95 | 99 | 1006.5 |
| 20260506034750 | 7 | 39 | 6.4 | 17.7 | 0.30 | 2.92 | 2.92 | 99 | 1006.9 |
| 20260506034248 | 7 | 4 | 6.4 | 20.9 | 0.23 | 2.90 | 2.90 | 99 | 1007.1 |
| 20260506033744 | 7 | 326 | 8.0 | 20.9 | 0.18 | 2.87 | 2.87 | 99 | 1007.0 |
| 20260506033242 | 7 | 312 | 4.8 | 17.7 | 0.05 | 2.87 | 2.87 | 99 | 1007.1 |
| 20260506032739 | 7 | 3 | 6.4 | 12.9 | 0.05 | 2.84 | 2.84 | 99 | 1007.0 |
| 20260506032236 | 7 | 326 | 6.4 | 14.5 | 0.13 | 2.84 | 2.84 | 99 | 1006.7 |
| 20260506031732 | 7 | 340 | 6.4 | 12.9 | 0.05 | 2.82 | 2.82 | 99 | 1006.8 |
| 20260506031229 | 7 | 339 | 6.4 | 12.9 | 0.05 | 2.82 | 2.82 | 99 | 1006.6 |
| 20260506030727 | 7 | 21 | 8.0 | 11.3 | 0.13 | 2.82 | 2.82 | 99 | 1006.8 |
| 20260506030225 | 7 | 52 | 4.8 | 11.3 | 0.13 | 2.82 | 2.82 | 99 | 1006.8 |
| 20260506025721 | 7 | 322 | 11.3 | 11.3 | 0.05 | 2.79 | 2.79 | 99 | 1007.0 |
| 20260506025218 | 7 | 79 | 6.4 | 12.9 | 0.05 | 2.79 | 2.79 | 99 | 1006.5 |
| 20260506024715 | 7 | 24 | 4.8 | 11.3 | 0.05 | 2.79 | 2.79 | 99 | 1006.9 |
| 20260506024211 | 7 | 2 | 4.8 | 12.9 | 0.05 | 2.77 | 2.77 | 99 | 1007.0 |
| 20260506023708 | 7 | 57 | 6.4 | 9.7 | 0.05 | 2.77 | 2.77 | 99 | 1006.9 |